Preview of NWS' New Version of Forecast
This preview is not operational and should not be used for support decisions.

Regional Weather Roundup (RWR)

Issued by Philadelphia/Mt Holly (PHI)

                            
000
ASUS41 KPHI 241812
RWRPHI

REGIONAL WEATHER ROUNDUP
NATIONAL WEATHER SERVICE MOUNT HOLLY NJ
200 PM EDT FRI MAY 24 2019

NOTE:  "FAIR" INDICATES FEW OR NO CLOUDS BELOW 12,000 FEET WITH NO
SIGNIFICANT WEATHER AND/OR OBSTRUCTIONS TO VISIBILITY.

 * = STATION DOES NOT REPORT PRECIPITATION (E.G. RAIN, SNOW, ETC.) 
        OR FOG.

NJZ015>026-241900-
SOUTHERN NEW JERSEY
  
CITY           SKY/WX    TMP DP  RH WIND       PRES   REMARKS
POMONA         FAIR      79  52  38 NW24G38   29.93S                  
6HR MIN TEMP:  73; 6HR MAX TEMP:  80;                                

WILDWOOD*      FAIR      78  54  43 W15G22    29.97S                  
MILLVILLE      FAIR      80  51  36 NW16G25   29.96S                  
WRIGHTSTOWN    FAIR      77  52  40 N10G26    29.93R                  
MOUNT HOLLY    FAIR      78  53  41 NW14G25   29.95F                  
TRENTON        FAIR      76  52  43 NW15G28   29.95F                  
6HR MIN TEMP:  68; 6HR MAX TEMP:  76;                                


$$
NJZ001>014-241900-
NORTHERN NEW JERSEY
  
CITY           SKY/WX    TMP DP  RH WIND       PRES   REMARKS
SUSSEX         PTSUNNY   69  53  56 N10       30.00R                  
ANDOVER*         N/A     70  51  51 N9        29.98S                  
MORRISTOWN     MOSUNNY   73  54  49 N17G29    29.95S                  
NEWARK         PTSUNNY   76  49  38 NW32G46   29.92S                  
TETERBORO      FAIR      73  51  46 NW20G35   29.92R                  
CALDWELL       FAIR      74  51  44 N13G29    29.95R                  
SOMERVILLE     FAIR      74  50  42 NW16G31   29.95S                  
ALLAIRE*       PTSUNNY   76  51  41 W25G33    29.93S                  
TOMS RIVER*    FAIR      77  52  41 NW23G30   29.93S                  

$$
PAZ043-044-047-054-055-060>062-066>071-241900-
EASTERN PENNSYLVANIA
  
CITY           SKY/WX    TMP DP  RH WIND       PRES   REMARKS
PHILADELPHIA   FAIR      78  49  35 NW17G28   29.97F                  
6HR MIN TEMP:  69; 6HR MAX TEMP:  78;                                

NORTH PHILA    FAIR      79  51  37 W20G26    29.98S                  
BLUE BELL*     FAIR      75  52  43 NW12G20   29.98F                  
DOYLESTOWN     FAIR      78  53  41 NW13G24   29.97S                  
QUAKERTOWN*    PTSUNNY   75  52  43 N8G18     29.99R                  
PERKASIE*      MOCLDY    73  50  43 NW8G23    29.99S                  
POTTSTOWN      FAIR      74  51  44 NW17G24   30.00S                  
LANCASTER      FAIR      78  51  38 NW21G28   30.01S                  
COATESVILLE    FAIR      75  50  41 NW16G25   30.02S                  
WEST CHESTER   FAIR      73  46  38 NW12G18   30.00S                  
READING        FAIR      77  54  44 NW18G26   29.99S                  
6HR MIN TEMP:  67; 6HR MAX TEMP:  77; 6HR PCP: TRACE;                

ALLENTOWN      FAIR      78  52  40 NW13G22   29.98F                  
6HR MIN TEMP:  68; 6HR MAX TEMP:  78;                                

QN CITY/ALNTWN FAIR      75  52  43 NW15G23   30.00R                  
MOUNT POCONO   CLOUDY    62  50  64 NW16G23   30.03R                  
6HR MIN TEMP:  57; 6HR MAX TEMP:  63;                                

HAZLETON       CLOUDY    70  46  43 NW8G17    30.07R                  
LEHIGHTON      MOCLDY    73  46  38 NW9G18    30.01R                  
WILKES BARRE   CLOUDY    68  51  54 N15       30.04S                  

$$
DEZALL-MDZ008-012-015-019-020-241900-
DELAWARE AND EASTERN MARYLAND
  
CITY           SKY/WX    TMP DP  RH WIND       PRES   REMARKS
WILMINGTON     FAIR      80  52  37 NW16G28   29.99S                  
6HR MIN TEMP:  72; 6HR MAX TEMP:  80;                                

DOVER          FAIR      79  49  35 NW20G26   29.97F                  
CHESWOLD         N/A     79  50  36 NW14      29.98F                  
GEORGETOWN     FAIR      80  52  37 W14G23    29.98F                  
6HR MIN TEMP:  73; 6HR MAX TEMP:  80;                                

EASTON         SUNNY     81  52  36 W17G24    30.04F                  
STEVENSVILLE   FAIR      79  54  41 NW13G21   30.01F                  
ABERDEEN       MOSUNNY   79  52  38 W16       30.01                   
PATUXENT       FAIR      82  56  40 NW18      30.01F                  
OCEAN CITY     FAIR      81  52  36 NW13G29   29.97F                  
WALLOPS ISLAND FAIR      82  54  37 NW21G31   29.98F                  
CAMBRIDGE      SUNNY     79  52  38 W14G25    30.01S                  
SALISBURY      FAIR      81  55  40 NW21G28   29.98F                  

$$
PAZ001-021-NYZ056-072-MDZ011-DCZ001-241900-
OTHER NEARBY LOCATIONS
  
CITY           SKY/WX    TMP DP  RH WIND       PRES   REMARKS
HARRISBURG     FAIR      78  51  38 NW18G29   30.01S                  
STATE COLLEGE  MOSUNNY   73  50  43 NW15G22   30.08S                  
WILLIAMSPORT   FAIR      78  46  32 NW15G23   30.01R                  
BINGHAMTON     CLOUDY    56  48  74 NW15G22   30.07R                  
NEW YORK CITY  FAIR      72  50  45 MISG      29.95R                  
BALTIMORE      FAIR      81  51  35 NW21G26   30.01S                  
WASHINGTON DC  FAIR      80  53  39 NW17G24   30.05S                  

$$